Time,TemperatureF,DewpointF,PressureIn,WindDirection,WindDirectionDegrees,WindSpeedMPH,WindSpeedGustMPH,Humidity,HourlyPrecipIn,Conditions,Clouds,dailyrainin,SoftwareType,DateUTC
2013-07-27 00:43:00,71.0,-99.9,30.06,North,-999,-999.0,-999.0,-999,0.00,,,-99.99,,2013-07-27 04:43:00,
2013-07-27 01:43:00,69.0,-99.9,30.06,North,-999,-999.0,-999.0,-999,0.00,,,-99.99,,2013-07-27 05:43:00,
2013-07-27 01:52:00,69.0,-99.9,30.06,North,-999,-999.0,-999.0,-999,0.00,,,-99.99,,2013-07-27 05:52:00,
2013-07-27 02:33:00,68.0,-99.9,30.06,North,-999,-999.0,-999.0,-999,0.00,,,-99.99,,2013-07-27 06:33:00,
2013-07-27 02:43:00,68.0,-99.9,30.06,North,-999,-999.0,-999.0,-999,0.00,,,-99.99,,2013-07-27 06:43:00,
2013-07-27 02:52:00,68.0,-99.9,30.06,North,-999,-999.0,-999.0,-999,0.00,,,-99.99,,2013-07-27 06:52:00,
2013-07-27 02:53:00,68.0,-99.9,30.05,North,-999,-999.0,-999.0,-999,0.00,,,-99.99,,2013-07-27 06:53:00,
2013-07-27 03:34:00,68.0,-99.9,30.05,North,-999,-999.0,-999.0,-999,0.00,,,-99.99,,2013-07-27 07:34:00,
2013-07-27 03:44:00,68.0,-99.9,30.05,North,-999,-999.0,-999.0,-999,0.00,,,-99.99,,2013-07-27 07:44:00,
2013-07-27 03:53:00,67.0,-99.9,30.05,North,-999,-999.0,-999.0,-999,0.00,,,-99.99,,2013-07-27 07:53:00,
2013-07-27 04:32:00,67.0,-99.9,30.05,North,-999,-999.0,-999.0,-999,0.00,,,-99.99,,2013-07-27 08:32:00,
2013-07-27 04:43:00,67.0,-99.9,30.05,North,-999,-999.0,-999.0,-999,0.00,,,-99.99,,2013-07-27 08:43:00,
2013-07-27 05:33:00,67.0,-99.9,30.05,North,-999,-999.0,-999.0,-999,0.00,,,-99.99,,2013-07-27 09:33:00,
2013-07-27 05:44:00,67.0,-99.9,30.05,North,-999,-999.0,-999.0,-999,0.00,,,-99.99,,2013-07-27 09:44:00,
2013-07-27 05:52:00,67.0,-99.9,30.05,North,-999,-999.0,-999.0,-999,0.00,,,-99.99,,2013-07-27 09:52:00,
2013-07-27 06:32:00,66.0,-99.9,30.05,North,-999,-999.0,-999.0,-999,0.00,,,-99.99,,2013-07-27 10:32:00,
2013-07-27 06:44:00,66.0,-99.9,30.05,North,-999,-999.0,-999.0,-999,0.00,,,-99.99,,2013-07-27 10:44:00,
2013-07-27 06:52:00,66.0,-99.9,30.05,North,-999,-999.0,-999.0,-999,0.00,,,-99.99,,2013-07-27 10:52:00,
2013-07-27 06:53:00,69.0,-99.9,30.04,North,-999,-999.0,-999.0,-999,0.00,,,-99.99,,2013-07-27 10:53:00,
2013-07-27 07:32:00,69.0,-99.9,30.04,North,-999,-999.0,-999.0,-999,0.00,,,-99.99,,2013-07-27 11:32:00,
2013-07-27 07:44:00,69.0,-99.9,30.04,North,-999,-999.0,-999.0,-999,0.00,,,-99.99,,2013-07-27 11:44:00,
2013-07-27 08:33:00,73.0,-99.9,30.05,North,-999,-999.0,-999.0,-999,0.00,,,-99.99,,2013-07-27 12:33:00,
2013-07-27 08:43:00,73.0,-99.9,30.05,North,-999,-999.0,-999.0,-999,0.00,,,-99.99,,2013-07-27 12:43:00,
2013-07-27 08:52:00,73.0,-99.9,30.05,North,-999,-999.0,-999.0,-999,0.00,,,-99.99,,2013-07-27 12:52:00,
2013-07-27 08:53:00,76.0,-99.9,30.07,North,-999,-999.0,-999.0,-999,0.00,,,-99.99,,2013-07-27 12:53:00,
2013-07-27 09:44:00,76.0,-99.9,30.07,North,-999,-999.0,-999.0,-999,0.00,,,-99.99,,2013-07-27 13:44:00,
2013-07-27 09:53:00,78.0,-99.9,30.06,North,-999,-999.0,-999.0,-999,0.00,,,-99.99,,2013-07-27 13:53:00,
2013-07-27 10:33:00,78.0,-99.9,30.06,North,-999,-999.0,-999.0,-999,0.00,,,-99.99,,2013-07-27 14:33:00,
2013-07-27 10:44:00,78.0,-99.9,30.06,North,-999,-999.0,-999.0,-999,0.00,,,-99.99,,2013-07-27 14:44:00,
2013-07-27 10:53:00,79.0,-99.9,30.06,North,-999,-999.0,-999.0,-999,0.00,,,-99.99,,2013-07-27 14:53:00,
2013-07-27 11:44:00,79.0,-99.9,30.06,North,-999,-999.0,-999.0,-999,0.00,,,-99.99,,2013-07-27 15:44:00,
2013-07-27 11:53:00,79.0,-99.9,30.06,North,-999,-999.0,-999.0,-999,0.00,,,-99.99,,2013-07-27 15:53:00,
2013-07-27 12:33:00,79.0,-99.9,30.06,North,-999,-999.0,-999.0,-999,0.00,,,-99.99,,2013-07-27 16:33:00,
2013-07-27 12:43:00,79.0,-99.9,30.06,North,-999,-999.0,-999.0,-999,0.00,,,-99.99,,2013-07-27 16:43:00,
2013-07-27 12:53:00,78.0,-99.9,30.02,North,-999,-999.0,-999.0,-999,0.00,,,-99.99,,2013-07-27 16:53:00,
2013-07-27 13:32:00,78.0,-99.9,30.02,North,-999,-999.0,-999.0,-999,0.00,,,-99.99,,2013-07-27 17:32:00,
2013-07-27 13:43:00,78.0,-99.9,30.02,North,-999,-999.0,-999.0,-999,0.00,,,-99.99,,2013-07-27 17:43:00,
2013-07-27 13:53:00,78.0,-99.9,30.01,North,-999,-999.0,-999.0,-999,0.00,,,-99.99,,2013-07-27 17:53:00,
2013-07-27 14:33:00,78.0,-99.9,30.01,North,-999,-999.0,-999.0,-999,0.00,,,-99.99,,2013-07-27 18:33:00,
2013-07-27 14:43:00,78.0,-99.9,30.01,North,-999,-999.0,-999.0,-999,0.00,,,-99.99,,2013-07-27 18:43:00,
2013-07-27 14:53:00,78.0,-99.9,30.00,North,-999,-999.0,-999.0,-999,0.00,,,-99.99,,2013-07-27 18:53:00,
2013-07-27 15:32:00,78.0,-99.9,30.00,North,-999,-999.0,-999.0,-999,0.00,,,-99.99,,2013-07-27 19:32:00,
2013-07-27 15:43:00,78.0,-99.9,30.00,North,-999,-999.0,-999.0,-999,0.00,,,-99.99,,2013-07-27 19:43:00,
2013-07-27 16:53:00,76.0,-99.9,29.97,North,-999,-999.0,-999.0,-999,0.00,,,-99.99,,2013-07-27 20:53:00,
2013-07-27 17:33:00,76.0,-99.9,29.97,North,-999,-999.0,-999.0,-999,0.00,,,-99.99,,2013-07-27 21:33:00,
2013-07-27 17:43:00,76.0,-99.9,29.97,North,-999,-999.0,-999.0,-999,0.00,,,-99.99,,2013-07-27 21:43:00,
2013-07-27 17:53:00,75.0,-99.9,29.96,North,-999,-999.0,-999.0,-999,0.00,,,-99.99,,2013-07-27 21:53:00,
2013-07-27 18:33:00,75.0,-99.9,29.96,North,-999,-999.0,-999.0,-999,0.00,,,-99.99,,2013-07-27 22:33:00,
2013-07-27 18:43:00,75.0,-99.9,29.96,North,-999,-999.0,-999.0,-999,0.00,,,-99.99,,2013-07-27 22:43:00,
2013-07-27 18:53:00,75.0,-99.9,29.96,North,-999,-999.0,-999.0,-999,0.00,,,-99.99,,2013-07-27 22:53:00,
2013-07-27 19:33:00,75.0,-99.9,29.96,North,-999,-999.0,-999.0,-999,0.00,,,-99.99,,2013-07-27 23:33:00,
2013-07-27 19:44:00,75.0,-99.9,29.96,North,-999,-999.0,-999.0,-999,0.00,,,-99.99,,2013-07-27 23:44:00,
2013-07-27 19:53:00,74.0,-99.9,29.96,North,-999,-999.0,-999.0,-999,0.00,,,-99.99,,2013-07-27 23:53:00,
2013-07-27 20:32:00,74.0,-99.9,29.96,North,-999,-999.0,-999.0,-999,0.00,,,-99.99,,2013-07-28 00:32:00,
2013-07-27 20:44:00,74.0,-99.9,29.96,North,-999,-999.0,-999.0,-999,0.00,,,-99.99,,2013-07-28 00:44:00,
2013-07-27 20:53:00,73.0,-99.9,29.98,North,-999,-999.0,-999.0,-999,0.00,,,-99.99,,2013-07-28 00:53:00,
2013-07-27 21:32:00,73.0,-99.9,29.98,North,-999,-999.0,-999.0,-999,0.00,,,-99.99,,2013-07-28 01:32:00,
2013-07-27 21:43:00,73.0,-99.9,29.98,North,-999,-999.0,-999.0,-999,0.00,,,-99.99,,2013-07-28 01:43:00,
2013-07-27 21:53:00,73.0,-99.9,29.97,North,-999,-999.0,-999.0,-999,0.00,,,-99.99,,2013-07-28 01:53:00,
2013-07-27 22:32:00,73.0,-99.9,29.97,North,-999,-999.0,-999.0,-999,0.00,,,-99.99,,2013-07-28 02:32:00,
2013-07-27 22:43:00,73.0,-99.9,29.97,North,-999,-999.0,-999.0,-999,0.00,,,-99.99,,2013-07-28 02:43:00,
2013-07-27 22:53:00,72.0,-99.9,29.95,North,-999,-999.0,-999.0,-999,0.00,,,-99.99,,2013-07-28 02:53:00,
2013-07-27 23:32:00,72.0,-99.9,29.95,North,-999,-999.0,-999.0,-999,0.00,,,-99.99,,2013-07-28 03:32:00,
2013-07-27 23:43:00,72.0,-99.9,29.95,North,-999,-999.0,-999.0,-999,0.00,,,-99.99,,2013-07-28 03:43:00,
2013-07-27 23:53:00,71.0,-99.9,29.94,North,-999,-999.0,-999.0,-999,0.00,,,-99.99,,2013-07-28 03:53:00,